www.pogodaiklimat.ru

Погода и климат >> Архив погоды >> Французская Полинезия >> Bora-Bora Airport


ПОГОДА в Bora-Bora Airport

  • Прогноз погоды в Bora-Bora Airport
  • Монитор погоды в Bora-Bora Airport
  • Климат города

АРХИВ ПОГОДЫ в Bora-Bora Airport

Время (UTC), дата Ветер
(напр.,м/с)
 
Видим.   Явления Облачность Т
(С)
Тd
(С)
f
(%)
Тe
(С)
Тes
(С)
Комфортность P
(гПа)
Po
(гПа)
Тmin
(С)
Tmax
(С)
R
(мм)
R24
(мм)
S
(см)
16 18.05 В 3
{7}
30 км 8/8 300 м
[]
+25.9 +23.9 89 +36 +36 очень
душно
1013.0 1012.7 3
17 18.05 В 3
{8}
24 км 8/8 600 м
[]
+26.5 +24.0 86 +37 +37 очень
душно
1013.7 1013.4
18 18.05 В 4
{10}
22 км 9/9 600 м
[]
+27.1 +24.6 86 +38 +38 очень
душно
1014.2 1013.9 +25.0 +27.3 3
19 18.05 В 3 30 км н/о +29.0 +24.1 75 +40 +40 очень
душно
1014.6 1014.3
20 18.05 В 3 30 км н/о +29.5 +24.1 73 +41 +41 опасность
перегрева
1014.8 1014.5
21 18.05 В 5
{8}
30 км н/о +29.9 +23.6 69 +41 +41 опасность
перегрева
1014.6 1014.3
22 18.05 В 5
{8}
35 км н/о +29.8 +23.5 69 +40 +40 очень
душно
1013.9 1013.6
23 18.05 В 5
{7}
35 км н/о +30.2 +23.4 67 +41 +41 опасность
перегрева
1013.1 1012.8
00 19.05 В 5
{7}
40 км н/о +30.1 +23.3 67 +41 +41 опасность
перегрева
1012.4 1012.1
01 19.05 В 5
{6}
55 км н/о +30.0 +23.4 68 +41 +41 опасность
перегрева
1012.4 1012.1
02 19.05 В 2 60 км н/о +29.4 +22.6 67 +39 +39 очень
душно
1012.4 1012.1
03 19.05 В 2 40 км н/о +28.7 +22.0 67 +37 +37 очень
душно
1012.9 1012.6
04 19.05 В 2 50 км н/о +27.7 +21.7 70 +36 +36 очень
душно
1013.3 1013.0
05 19.05 В 2 50 км н/о +27.5 +22.2 73 +36 +36 очень
душно
1013.7 1013.4
06 19.05 В 3 55 км н/о +27.2 +23.4 80 +37 +37 очень
душно
1014.0 1013.7 +27.2 +30.4
07 19.05 В 3 60 км н/о +27.4 +23.0 77 +37 +37 очень
душно
1014.2 1013.9
08 19.05 В 3 60 км н/о +27.1 +23.3 80 +37 +37 очень
душно
1014.1 1013.8
09 19.05 В 3 45 км н/о +27.1 +23.8 82 +37 +37 очень
душно
1013.9 1013.6
10 19.05 В 3 40 км н/о +27.2 +23.7 81 +37 +37 очень
душно
1013.5 1013.2
11 19.05 В 5 30 км н/о +26.7 +24.0 85 +37 +37 очень
душно
1012.9 1012.6
12 19.05 В 3 30 км 8/5 1440 м
[]
+27.2 +24.1 83 +38 +38 очень
душно
1012.7 1012.4
13 19.05 В 4 10 км слабый дождь 10/6 1300 м
[]
+25.2 +22.9 87 +33 +33 очень
душно
1012.5 1012.2
14 19.05 В 1 30 км 10/10 1500 м
[]
+25.7 +23.6 88 +35 +35 очень
душно
1012.1 1011.8 0.2
15 19.05 В 4
{7}
40 км н/о +26.8 +23.7 83 +37 +37 очень
душно
1012.3 1012.0 0.2
16 19.05 В 5
{7}
26 км 8/8 300 м
[]
+27.0 +23.9 83 +37 +37 очень
душно
1012.7 1012.4
17 19.05 В 5
{8}
55 км н/о +27.2 +23.7 81 +37 +37 очень
душно
1013.3 1013.0
18 19.05 В 5
{7}
45 км н/о +28.4 +24.0 77 +39 +39 очень
душно
1013.5 1013.2 +24.6 +28.4
19 19.05 В 6
{8}
40 км н/о +29.2 +24.3 75 +41 +41 опасность
перегрева
1013.7 1013.4
20 19.05 В 6
{8}
40 км н/о +29.9 +24.3 72 +42 +42 опасность
перегрева
1013.6 1013.3
21 19.05 В 5
{8}
40 км н/о +30.2 +24.4 71 +42 +42 опасность
перегрева
1012.9 1012.6
22 19.05 В 3 35 км н/о +30.5 +24.2 69 +42 +42 опасность
перегрева
1012.4 1012.1
23 19.05 В 5
{7}
40 км н/о +30.2 +24.1 70 +42 +42 опасность
перегрева
1011.8 1011.5
00 20.05 В 3-3
{4}
45 км н/о +30.4 +23.8 68 +42 +42 опасность
перегрева
1011.0 1010.7
01 20.05 В 4
{6}
55 км н/о +30.1 +23.5 68 +41 +41 опасность
перегрева
1010.6 1010.3
03 20.05 В 2 35 км н/о +28.9 +23.8 74 +40 +40 очень
душно
1010.9 1010.6
04 20.05 В 2 50 км н/о +28.0 +23.6 77 +38 +38 очень
душно
1011.4 1011.1
05 20.05 В 2 45 км н/о +27.5 +23.7 80 +38 +38 очень
душно
1012.1 1011.8
06 20.05 В 2 30 км н/о +27.8 +23.4 77 +38 +38 очень
душно
1012.6 1012.3 +27.4 +30.7
08 20.05 В 4
{6}
18 км н/о +27.6 +23.8 80 +38 +38 очень
душно
1012.7 1012.4
07 20.05 В 2 29 км н/о +27.8 +23.6 78 +38 +38 очень
душно
1012.7 1012.4
09 20.05 В 3 30 км н/о +27.4 +23.8 81 +38 +38 очень
душно
1012.6 1012.3
10 20.05 СВ 5 23 км 10/10 630 м
[]
+26.4 +23.3 83 +36 +36 очень
душно
1012.4 1012.1
11 20.05 В 2 30 км 8/1 1410 м
[]
+27.0 +22.6 77 +36 +36 очень
душно
1011.9 1011.6
12 20.05 В 2-3
{3}
45 км н/о +26.3 +22.8 81 +35 +35 очень
душно
1011.8 1011.5
14 20.05 В 2 26 км н/о +26.8 +23.7 83 +37 +37 очень
душно
1010.6 1010.3
13 20.05 В 2 25 км н/о +26.7 +22.8 79 +35 +35 очень
душно
1011.1 1010.8
15 20.05 В 3
{5}
45 км н/о +26.0 +23.1 84 +35 +35 очень
душно
1011.1 1010.8
16 20.05 СВ 4
{6}
35 км н/о +27.2 +23.7 81 +37 +37 очень
душно
1011.9 1011.6 0.2
17 20.05 В 3
{5}
29 км н/о +27.3 +23.8 81 +37 +37 очень
душно
1012.7 1012.4
18 20.05 В 3
{4}
30 км н/о +29.2 +24.3 75 +41 +41 опасность
перегрева
1013.2 1012.9 +25.7 +29.2 0.2
20 20.05 В 3
{5}
40 км н/о +30.4 +24.5 71 +43 +43 опасность
перегрева
1013.8 1013.5
19 20.05 В 4
{6}
35 км н/о +29.9 +23.8 70 +41 +41 опасность
перегрева
1013.5 1013.2
21 20.05 В 4
{6}
60 км н/о +30.6 +24.5 70 +43 +43 опасность
перегрева
1013.5 1013.2
22 20.05 В 5
{7}
60 км н/о +30.6 +24.7 71 +43 +43 опасность
перегрева
1012.5 1012.2
23 20.05 ЮВ 5
{8}
60 км 9/9 600 м
[]
+29.4 +24.1 73 +41 +42 опасность
перегрева
1012.0 1011.7
00 21.05 В 5
{7}
60 км н/о +30.2 +24.1 70 +42 +42 опасность
перегрева
1011.0 1010.7
01 21.05 В 5
{8}
55 км н/о +29.3 +24.2 74 +41 +41 опасность
перегрева
1010.5 1010.2
03 21.05 В 3 60 км н/о +27.9 +23.7 78 +38 +38 очень
душно
1010.9 1010.6
04 21.05 В 3 50 км н/о +27.1 +23.6 81 +37 +37 очень
душно
1011.2 1010.9
05 21.05 В 3 50 км н/о +27.0 +23.7 82 +37 +37 очень
душно
1011.7 1011.4
06 21.05 В 3 45 км н/о +27.4 +23.2 78 +37 +37 очень
душно
1012.1 1011.8 +27.0 +31.0
07 21.05 В 3 45 км слабый дождь 9/1 600 м
[]
+26.2 +23.3 84 +35 +35 очень
душно
1012.4 1012.1 2
08 21.05 В 4 18 км н/о +27.1 +23.6 81 +37 +37 очень
душно
1012.2 1011.9
09 21.05 В 4 29 км 9/9 2000 м
[]
+27.6 +23.4 78 +37 +37 очень
душно
1012.0 1011.7 2
10 21.05 В 3 19 км н/о +27.6 +24.0 81 +38 +38 очень
душно
1011.7 1011.4
11 21.05 В 4 19 км н/о +27.4 +23.2 78 +37 +37 очень
душно
1011.4 1011.1
12 21.05 В 4-5
{5}
17 км н/о +27.3 +23.3 79 +37 +37 очень
душно
1011.4 1011.1
13 21.05 В 4 24 км н/о +27.4 +23.6 80 +37 +37 очень
душно
1011.0 1010.7
14 21.05 В 3 17 км н/о +27.2 +23.2 79 +37 +37 очень
душно
1010.8 1010.5
15 21.05 В 4 22 км н/о +27.3 +23.1 78 +37 +37 очень
душно
1011.2 1010.9
16 21.05 В 6
{8}
24 км н/о +27.3 +22.9 77 +36 +36 очень
душно
1011.6 1011.3
17 21.05 В 6
{10}
16 км н/о +27.5 +23.1 77 +37 +37 очень
душно
1012.4 1012.1
18 21.05 В 3 15 км н/о +28.4 +23.3 74 +38 +38 очень
душно
1013.3 1013.0 +25.4 +28.4
19 21.05 В 7
{10}
15 км н/о +29.5 +24.1 73 +41 +41 опасность
перегрева
1013.9 1013.6
20 21.05 В 8
{12}
16 км н/о +29.7 +23.6 70 +41 +41 опасность
перегрева
1013.7 1013.4
21 21.05 В 8
{10}
16 км н/о +30.1 +23.8 69 +41 +41 опасность
перегрева
1013.1 1012.8
22 21.05 В 7
{10}
17 км н/о +30.5 +23.9 68 +42 +42 опасность
перегрева
1012.4 1012.1
23 21.05 В 7
{9}
17 км н/о +30.6 +23.8 67 +42 +42 опасность
перегрева
1011.7 1011.4
00 22.05 В 3-5
{5}
18 км н/о +30.1 +23.3 67 +41 +41 опасность
перегрева
1010.9 1010.6
01 22.05 В 4 18 км н/о +30.0 +23.9 70 +41 +41 опасность
перегрева
1010.6 1010.3
02 22.05 В 6
{9}
14 км н/о +29.7 +24.1 72 +41 +41 опасность
перегрева
1010.8 1010.5
03 22.05 В 3 35 км н/о +28.5 +23.4 74 +39 +39 очень
душно
1011.4 1011.1
04 22.05 В 3 6000 м слабый дождь 9/8 660 м
[]
+27.3 +23.8 81 +37 +37 очень
душно
1011.8 1011.5 0.8
05 22.05 В 3 15 км н/о +27.4 +24.1 82 +38 +38 очень
душно
1012.3 1012.0
06 22.05 В 3 14 км 8/4 660 м
[]
+27.5 +23.9 81 +38 +38 очень
душно
1012.6 1012.3 +27.2 +30.8 0.8
07 22.05 В 4 21 км н/о +27.4 +24.1 82 +38 +38 очень
душно
1012.8 1012.5
08 22.05 В 4 19 км 9/4 600 м
[]
+27.5 +24.4 83 +39 +39 очень
душно
1013.2 1012.9 0.8
09 22.05 В 4 13 км 8/3 660 м
[]
+27.5 +24.1 82 +38 +38 очень
душно
1013.1 1012.8 0.8
10 22.05 В 3 14 км 9/1 700 м
[]
+27.5 +23.9 81 +38 +38 очень
душно
1012.7 1012.4
11 22.05 В 4 13 км н/о +27.5 +23.7 80 +38 +38 очень
душно
1012.3 1012.0
12 22.05 В 3-4
{5}
11 км н/о +27.2 +23.0 78 +36 +36 очень
душно
1011.8 1011.5
13 22.05 В 3 11 км н/о +27.2 +23.7 81 +37 +37 очень
душно
1011.7 1011.4
14 22.05 В 3 30 км 8/8 630 м
[]
+27.2 +23.7 81 +37 +37 очень
душно
1011.6 1011.3
15 22.05 В 6
{9}
25 км н/о +27.1 +23.3 80 +37 +37 очень
душно
1011.6 1011.3
16 22.05 В 7
{10}
15 км н/о +27.3 +24.0 82 +38 +38 очень
душно
1011.9 1011.6
17 22.05 В 7
{10}
25 км н/о +27.7 +23.7 79 +38 +38 очень
душно
1012.5 1012.2
18 22.05 В 7
{10}
16 км н/о +28.6 +24.2 77 +40 +40 очень
душно
1013.3 1013.0 +26.6 +28.6
19 22.05 В 7
{10}
15 км н/о +29.1 +24.0 74 +40 +40 очень
душно
1013.6 1013.3
20 22.05 В 4 15 км н/о +29.3 +24.2 74 +41 +41 опасность
перегрева
1013.6 1013.3
21 22.05 В 7
{10}
15 км н/о +30.1 +24.5 72 +42 +42 опасность
перегрева
1012.8 1012.5
22 22.05 В 3 16 км н/о +30.4 +23.8 68 +42 +42 опасность
перегрева
1012.3 1012.0
23 22.05 В 6
{8}
16 км 8/8 600 м
[]
+30.5 +24.2 69 +42 +43 опасность
перегрева
1011.8 1011.5
00 23.05 В 6
{8}
28 км н/о +30.2 +23.9 69 +42 +42 опасность
перегрева
1011.1 1010.8
01 23.05 В 3 30 км н/о +30.1 +23.5 68 +41 +41 опасность
перегрева
1010.8 1010.5
02 23.05 В 2 35 км н/о +29.7 +22.9 67 +40 +40 очень
душно
1011.1 1010.8
03 23.05 В 2 21 км н/о +28.7 +22.9 71 +38 +38 очень
душно
1011.5 1011.2
04 23.05 В 2 45 км н/о +27.7 +22.9 75 +37 +37 очень
душно
1011.9 1011.6
05 23.05 В 2 60 км н/о +26.9 +23.6 82 +37 +37 очень
душно
1012.5 1012.2
06 23.05 В 2 40 км н/о +27.2 +23.4 80 +37 +37 очень
душно
1012.6 1012.3 +26.9 +30.7
07 23.05 В 2 45 км н/о +27.2 +22.8 77 +36 +36 очень
душно
1012.9 1012.6
08 23.05 В 2 60 км н/о +27.1 +23.1 79 +36 +36 очень
душно
1012.9 1012.6
09 23.05 В 2 40 км н/о +27.1 +23.1 79 +36 +36 очень
душно
1012.8 1012.5
10 23.05 В 3 35 км н/о +27.0 +22.8 78 +36 +36 очень
душно
1012.0 1011.7
11 23.05 В 2 35 км н/о +27.1 +23.3 80 +37 +37 очень
душно
1011.6 1011.3
12 23.05 В 2 29 км н/о +27.0 +23.3 80 +36 +36 очень
душно
1011.2 1010.9
13 23.05 В 3 45 км н/о +26.6 +22.7 79 +35 +35 очень
душно
1011.0 1010.7
14 23.05 В 2 55 км н/о +26.6 +22.7 79 +35 +35 очень
душно
1011.5 1011.2
15 23.05 В 2 60 км н/о +26.6 +22.9 80 +35 +35 очень
душно
1011.9 1011.6
16 23.05 В 3 55 км н/о +26.7 +22.8 79 +35 +35 очень
душно
1012.1 1011.8
17 23.05 В 3 50 км н/о +27.1 +22.9 78 +36 +36 очень
душно
1012.6 1012.3
18 23.05 В 3 16 км н/о +28.4 +23.5 75 +39 +39 очень
душно
1013.1 1012.8 +26.4 +28.4
19 23.05 В 3 16 км н/о +29.2 +23.2 70 +39 +39 очень
душно
1013.5 1013.2
20 23.05 В 4 17 км н/о +29.8 +23.5 69 +40 +40 очень
душно
1013.2 1012.9
21 23.05 В 4 19 км н/о +30.1 +23.5 68 +41 +41 опасность
перегрева
1012.7 1012.4
22 23.05 В 3 22 км н/о +30.1 +23.8 69 +41 +41 опасность
перегрева
1012.3 1012.0
23 23.05 В 5
{7}
27 км н/о +30.3 +23.2 66 +41 +41 опасность
перегрева
1011.7 1011.4
00 24.05 В 2-3
{4}
35 км н/о +30.0 +23.0 66 +40 +40 очень
душно
1011.2 1010.9
01 24.05 В 2 45 км н/о +29.6 +22.8 67 +39 +39 очень
душно
1011.0 1010.7
02 24.05 В 4
{7}
40 км н/о +29.3 +22.5 67 +39 +39 очень
душно
1011.4 1011.1
03 24.05 В 2 60 км н/о +28.2 +22.2 70 +37 +37 очень
душно
1012.0 1011.7
04 24.05 В 2 35 км н/о +27.5 +22.2 73 +36 +36 очень
душно
1012.6 1012.3
05 24.05 В 2 60 км н/о +27.3 +22.5 75 +36 +36 очень
душно
1013.2 1012.9
06 24.05 В 3 35 км н/о +27.4 +22.6 75 +36 +36 очень
душно
1013.5 1013.2 +27.3 +30.5
07 24.05 В 3 40 км н/о +27.3 +22.5 75 +36 +36 очень
душно
1014.0 1013.7
08 24.05 В 3 50 км н/о +27.2 +22.2 74 +35 +35 очень
душно
1014.2 1013.9
09 24.05 В 3 60 км н/о +27.1 +22.5 76 +36 +36 очень
душно
1014.3 1014.0
10 24.05 В 3 60 км н/о +27.1 +22.3 75 +35 +35 очень
душно
1013.9 1013.6
11 24.05 В 3 35 км н/о +27.2 +22.6 76 +36 +36 очень
душно
1013.4 1013.1
12 24.05 В 3-4
{5}
28 км н/о +27.0 +22.6 77 +36 +36 очень
душно
1012.8 1012.5
13 24.05 В 3 25 км н/о +27.1 +23.1 79 +36 +36 очень
душно
1012.4 1012.1
14 24.05 В 3 30 км н/о +27.1 +22.7 77 +36 +36 очень
душно
1012.0 1011.7
15 24.05 В 3 30 км н/о +27.3 +23.3 79 +37 +37 очень
душно
1012.0 1011.7
16 24.05 В 4 30 км 9/9 600 м
[]
+27.3 +24.2 83 +38 +38 очень
душно
1012.5 1012.2
17 24.05 В 8
{11}
35 км н/о +27.9 +24.1 80 +39 +39 очень
душно
1013.1 1012.8
18 24.05 В 4 30 км 9/9 570 м
[]
+28.2 +24.6 81 +40 +40 очень
душно
1013.7 1013.4 +26.9 +28.4
19 24.05 СВ 9
{12}
27 км н/о +29.5 +24.1 73 +41 +41 опасность
перегрева
1014.4 1014.1
20 24.05 СВ 8
{11}
26 км н/о +30.0 +24.4 72 +42 +42 опасность
перегрева
1014.6 1014.3
21 24.05 СВ 8
{11}
25 км н/о +30.4 +24.1 69 +42 +42 опасность
перегрева
1014.1 1013.8
22 24.05 СВ 4 28 км н/о +30.6 +24.5 70 +43 +43 опасность
перегрева
1013.7 1013.4
23 24.05 СВ 7
{11}
28 км н/о +30.5 +24.9 72 +44 +44 опасность
перегрева
1012.8 1012.5
00 25.05 СВ 4-5
{5}
30 км н/о +30.3 +24.2 70 +42 +42 опасность
перегрева
1012.1 1011.8
01 25.05 СВ 5
{8}
45 км н/о +30.6 +23.5 66 +41 +41 опасность
перегрева
1011.8 1011.5
02 25.05 В 5
{6}
35 км 9/9 300 м
[]
+29.6 +24.5 74 +42 +42 опасность
перегрева
1011.9 1011.6
03 25.05 В 3 26 км 9/4 570 м
[]
+28.8 +24.6 78 +41 +41 опасность
перегрева
1012.1 1011.8
04 25.05 В 2 27 км н/о +28.2 +23.8 77 +39 +39 очень
душно
1012.5 1012.2
05 25.05 В 2 29 км н/о +28.1 +23.9 78 +39 +39 очень
душно
1013.0 1012.7
06 25.05 В 4
{6}
26 км н/о +28.0 +23.6 77 +38 +38 очень
душно
1013.6 1013.3 +28.0 +30.9
07 25.05 В 2 30 км 8/8
[]
+28.0 +23.8 78 +39 +39 очень
душно
1014.2 1013.9
08 25.05 В 3 35 км н/о +27.9 +23.5 77 +38 +38 очень
душно
1014.3 1014.0
09 25.05 В 3 30 км н/о +27.9 +23.5 77 +38 +38 очень
душно
1014.5 1014.2
10 25.05 В 3 30 км 9/1 720 м
[]
+27.9 +23.5 77 +38 +38 очень
душно
1014.4 1014.1
11 25.05 В 2 27 км 10/6 570 м
[]
+27.5 +23.7 80 +38 +38 очень
душно
1014.3 1014.0
12 25.05 В 2 29 км 8/4 570 м
[]
+27.5 +23.7 80 +38 +38 очень
душно
1013.8 1013.5
13 25.05 В 6
{8}
35 км 10/10 300 м
[]
+27.4 +23.2 78 +37 +37 очень
душно
1013.4 1013.1
14 25.05 В 3 17 км 9/6 600 м
[]
+27.5 +23.7 80 +38 +38 очень
душно
1013.3 1013.0
15 25.05 В 3 27 км 10/1 630 м
[]
+27.5 +23.7 80 +38 +38 очень
душно
1013.6 1013.3

 

Местоположение метеостанции Bora-Bora Airport (Французская Полинезия): широта -16.43 долгота -151.70 высота над уровнем моря 3 м.

В архиве по умолчанию представлена погода в Bora-Bora Airport за последнюю неделю. Архивные данные за месяц целиком и за предыдущие месяцы, начиная с января 2011 года, Вы можете получить, выбрав интересующий диапазон дат из раскрывающегося списка и нажав кнопку "Ввод!".

Внимание! Время в таблицах - всемирное. Для получения местного времени необходимо прибавить поправку, которая в Bora-Bora Airport равна -10 ч.

Смотрите также архив погоды в соседних городах и на ближайших метеорологических станциях:

Погода в Tahiti-Faaa (Французская Полинезия) (256 км)
Погода в Takaroa (Французская Полинезия) (750 км)
Погода в Hereheretue (Французская Полинезия) (806 км)
Погода в Tubuai (Французская Полинезия) (806 км)
Погода в Aitutaki (Кука Острова) (889 км)
Погода в Rarotonga (Кука Острова) (1004 км)
Погода в Penrhyn (Кука Острова) (1070 км)
Погода в Hao (Французская Полинезия) (1161 км)
Погода в Manihiki (Кука Острова) (1209 км)
Погода в Rapa (Французская Полинезия) (1458 км)

Пояснения к столбцам:

Ветер - указаны скорость ветра в м/с - средняя за 10 мин, порывы в срок и между сроками (в фигурных скобках) и направление, откуда дует ветер: С - северный, СВ - северо-восточный, В - восточный, ЮВ - юго-восточный, Ю - южный, ЮЗ - юго-западный, З - западный, СЗ - северо-западный.
Видимость - горизонтальная дальность видимости в метрах или километрах. При видимости от 1 до 10 км при отсутствии осадков обычно наблюдается дымка, при ухудшении видимости до 1 км и менее - туман. В сухую погоду видимость может ухудшаться дымом, пылью или мглою.
Явления - указаны атмосферные явления, наблюдавшиеся в срок или в последний час перед сроком; фигурными скобками обозначены явления, наблюдавшиеся между сроками (за 1-3 часа до срока); квадратными скобками обозначены град или гололедные отложения с указанием их диаметра в мм.
Облачность - указаны через наклонную черту общая и нижняя облачность в баллах и высота нижней границы облаков в метрах; квадратными скобками обозначены формы облаков: Ci - перистые, Cs - перисто-слоистые, Cc - перисто-кучевые, Ac - высококучевые, As - высокослоистые, Sc - слоисто-кучевые, Ns - слоисто-дождевые, Cu - кучевые, Cb - кучево-дождевые. Подробнее классификацию облаков см. в Атласе облаков (PDF).
T - Температура воздуха - температура, измеренная на высоте 2 м над землей.
Td - Температура точки росы - температура, при понижении до которой содержащийся в воздухе водяной пар достигнет насыщения.
f - Относительная влажность воздуха - влажноcть воздуха, измеренная на высоте 2 м над землей.
Te - Эффективная температура - температура, которую ощущает одетый по сезону человек в тени. Характеристика душности погоды. При расчете учитывается влияние влажности воздуха и скорости ветра на теплоощущения человека.
Tes - Эффективная температура на солнце - температура, которую ощущает человек, с поправкой на солнечный нагрев. Характеристика знойности погоды. Зависит от высоты солнца над горизонтом, облачности и скорости ветра. Ночью, в пасмурную погоду, а также при ветре 12 м/с и более поправка равна нулю.
P - Атмосферное давление - приведенное к уровню моря атмосферное давление.
Po - Атмосферное давление - измеренное на уровне метеостанции атмосферное давление.
Tmin - Минимальная температура - минимум температуры воздуха на высоте 2 м над землей.
Tmax - Максимальная температура - максимум температуры воздуха на высоте 2 м над землей.
R - Количество осадков - Количество выпавших осадков за период времени, мм. При наведении курсора мыши на число - период времени, за который выпало указанное количество осадков.
R24 - Количество осадков - Количество выпавших осадков за 24 часа, мм.
S - Снежный покров - Высота снежного покрова, см. При наведении курсора мыши на число - состояние снежного покрова и степень покрытия местности в баллах.